Location: Pinhey's Point
(45.4411°N, 75.9539°W)
Time: 11:58:33
(UTC-04:00)

Iridium 65 - Visible Passes

Search period start: 25 July 2016 00:00
Search period end: 04 August 2016 00:00
Orbit: 776 x 779 km, 86.4° (Epoch: 24 July)

Date Brightness Start Highest point End Pass type
(mag) Time Alt. Az. Time Alt. Az. Time Alt. Az.
25 Jul 8.5 03:20:39 10° E 03:21:44 11° ENE 03:22:50 10° ENE visible
25 Jul 5.7 04:56:20 10° S 05:01:32 82° E 05:06:47 10° N visible
26 Jul 6.6 04:23:09 10° SSE 04:28:06 46° E 04:33:05 10° NNE visible
27 Jul 7.5 03:50:30 10° SE 03:54:47 27° E 03:59:06 10° NNE visible
28 Jul 8.1 03:18:39 10° ESE 03:21:36 15° ENE 03:24:33 10° NE visible
28 Jul 5.5 04:56:28 10° S 05:01:40 71° W 05:06:54 10° N visible
29 Jul 5.9 04:23:00 10° S 04:28:09 66° E 04:33:20 10° N visible
30 Jul 6.9 03:50:01 10° SSE 03:54:46 37° E 03:59:32 10° NNE visible
31 Jul 7.7 03:17:38 10° SE 03:21:30 21° E 03:25:23 10° NNE visible
31 Jul 5.8 04:56:47 10° SSW 05:01:50 50° W 05:06:55 10° N visible
01 Aug 8.2 02:46:23 10° E 02:48:22 12° ENE 02:50:20 10° NE visible
01 Aug 5.5 04:23:02 10° S 04:28:15 88° W 04:33:31 10° N visible
02 Aug 6.2 03:49:45 10° SSE 03:54:47 52° E 03:59:51 10° NNE visible
03 Aug 7.2 03:16:59 10° SE 03:21:27 30° E 03:25:56 10° NNE visible
03 Aug 6.2 04:57:18 10° SW 05:02:03 35° W 05:06:51 10° NNW visible
